Weather History for Shelbyville, IN

Change the Weather History Date:

Saturday, June 7, 2014

  Actual Average Record
Temperature  
Mean Temperature 71 °F 70 °F  
Max Temperature 83 °F 80 °F 93 °F (2011)
Min Temperature 58 °F 59 °F 51 °F (2012)
Degree Days  
Heating Degree Days 0 1  
Month to date heating degree days 0 7  
Since 1 June heating degree days 0 7  
Since 1 July heating degree days 5702 5402  
Cooling Degree Days 6 6  
Month to date cooling degree days 57 35  
Year to date cooling degree days 220 116  
Since 1 June cooling degree days 57 35  
Growing Degree Days 20 (Base 50)    
Moisture  
Dew Point 54 °F    
Average Humidity 59    
Maximum Humidity 84    
Minimum Humidity 34    
Precipitation  
Precipitation 0.06 in 0.17 in 0.65 in (2008)
Month to date precipitation 2.49 1.16  
Year to date precipitation 17.98 18.94  
Sea Level Pressure  
Sea Level Pressure 29.93 in    
Wind  
Wind Speed 8 mph (SE)    
Max Wind Speed 17 mph    
Max Gust Speed 24 mph    
Visibility 10 miles    
Events      
T = Trace of Precipitation, MM = Missing Value Source: NWS Daily Summary

Daily Weather History Graph

Daily Weather History Graph

Search for Another Location

Airport:

Trip Planner

Search our weather history database for the weather conditions in past years. The results will help you decide how hot, cold, wet, or windy it might be!

Date:

Astronomy

Jun. 07, 2014 Rise Set
Actual Time 6:15 AM EDT 9:08 PM EDT
Civil Twilight 5:43 AM EDT 9:40 PM EDT
Nautical Twilight 5:03 AM EDT 10:21 PM EDT
Astronomical Twilight 4:16 AM EDT 11:08 PM EDT
Moon 3:26 PM EDT (6/7) 2:35 AM EDT (6/7)
Length of Visible Light 15h 57m
Length of Day
14h 52m
Waxing Gibbous, 67% of the Moon is Illuminated
Jun 7
Waxing Gibbous
Jun 13
Full
Jun 19
Last Quarter
Jun 27
New
Jul 5
First Quarter

Hourly Weather History & Observations

Time (EDT) Temp. Heat Index Dew Point Humidity Pressure Visibility Wind Dir Wind Speed Gust Speed Precip Events Conditions
12:53 AM 63.0 °F - 55.9 °F 78% 29.99 in 10.0 mi ENE 4.6 mph - N/A   Clear
1:53 AM 63.0 °F - 57.0 °F 81% 30.00 in 10.0 mi NNE 3.5 mph - N/A   Clear
2:53 AM 61.0 °F - 55.9 °F 83% 29.98 in 10.0 mi ENE 5.8 mph - N/A   Clear
3:53 AM 61.0 °F - 55.0 °F 81% 29.97 in 10.0 mi NE 4.6 mph - N/A   Clear
4:53 AM 61.0 °F - 53.1 °F 75% 29.97 in 10.0 mi ESE 3.5 mph - N/A   Clear
5:53 AM 59.0 °F - 53.1 °F 81% 29.99 in 10.0 mi East 3.5 mph - N/A   Clear
6:53 AM 59.0 °F - 54.0 °F 83% 30.03 in 10.0 mi Calm Calm - N/A   Clear
7:53 AM 64.9 °F - 55.0 °F 70% 30.04 in 10.0 mi Calm Calm - N/A   Clear
9:53 AM 73.9 °F - 54.0 °F 50% 30.03 in 10.0 mi South 8.1 mph - N/A   Clear
10:53 AM 77.0 °F - 53.1 °F 43% 30.01 in 10.0 mi SSE 9.2 mph - N/A   Clear
11:53 AM 79.0 °F - 52.0 °F 39% 30.00 in 10.0 mi SSE 11.5 mph - N/A   Clear
12:53 PM 80.1 °F - 52.0 °F 38% 29.97 in 10.0 mi SE 10.4 mph 17.3 mph N/A   Clear
1:53 PM 81.0 °F - 52.0 °F 36% 29.96 in 10.0 mi South 12.7 mph - N/A   Clear
2:53 PM 82.0 °F - 52.0 °F 35% 29.94 in 10.0 mi SE 12.7 mph - N/A   Clear
3:53 PM 82.0 °F 81.2 °F 53.1 °F 37% 29.92 in 10.0 mi SSE 10.4 mph - N/A   Clear
4:53 PM 82.0 °F - 52.0 °F 35% 29.90 in 10.0 mi SSE 12.7 mph - N/A   Clear
5:53 PM 82.0 °F 81.3 °F 54.0 °F 38% 29.88 in 10.0 mi South 11.5 mph - N/A   Clear
6:53 PM 80.1 °F 79.9 °F 53.1 °F 39% 29.87 in 10.0 mi SSE 11.5 mph - N/A   Clear
7:53 PM 79.0 °F - 54.0 °F 42% 29.84 in 10.0 mi SE 9.2 mph - N/A   Clear
8:53 PM 75.9 °F - 53.1 °F 45% 29.81 in 10.0 mi ESE 6.9 mph - N/A   Clear
9:53 PM 75.0 °F - 54.0 °F 48% 29.80 in 10.0 mi ESE 8.1 mph - N/A   Clear
10:53 PM 73.9 °F - 55.0 °F 52% 29.80 in 10.0 mi ESE 9.2 mph - N/A   Scattered Clouds
11:53 PM 73.9 °F - 55.0 °F 52% 29.77 in 10.0 mi ESE 10.4 mph - N/A   Mostly Cloudy